When you browse on this site, cookies collect data to enhance your experience and personalize the content and advertising you see.
Visit our Privacy Policy to learn more. By continuing to use the site, you agree to this use of cookies and data.
  • In United Kingdom
  • List of Countries
  • For 7 days
  • Water Temperature
  • Satellite Maps
  • Weather Map
  • Weather Widgets
  • user-avatar
    Login

    Hourly Weather Nakhchivan

    Today, 11 December, Tuesday

    Time Temperature Precipitation Wind Pressure Humidity
    00:00 +6°C° 0 mm 1 mps 687 mmHg 66%
    01:00 +6°C° 0 mm 1 mps 687 mmHg 66%
    02:00 +6°C° 0 mm 1 mps 687 mmHg 67%
    03:00 +5°C° 0 mm 1 mps 686 mmHg 69%
    04:00 +5°C° 0 mm 1 mps 686 mmHg 69%
    05:00 +5°C° 0 mm 1 mps 686 mmHg 70%
    06:00 +5°C° 0 mm 1 mps 687 mmHg 70%
    07:00 +5°C° 0 mm 2 mps 687 mmHg 66%
    08:00 +6°C° 0 mm 2 mps 687 mmHg 62%
    09:00 +8°C° 0 mm 2 mps 686 mmHg 57%
    10:00 +9°C° 0 mm 2 mps 686 mmHg 55%
    11:00 +10°C° 0 mm 3 mps 686 mmHg 53%
    12:00 +11°C° 0 mm 3 mps 685 mmHg 51%
    13:00 +11°C° 0 mm 3 mps 685 mmHg 50%
    14:00 +12°C° 0 mm 3 mps 685 mmHg 49%
    15:00 +12°C° 0 mm 3 mps 684 mmHg 49%
    16:00 +11°C° 0 mm 3 mps 685 mmHg 53%
    17:00 +10°C° 0 mm 3 mps 685 mmHg 58%
    18:00 +9°C° 0 mm 2 mps 685 mmHg 62%
    19:00 +8°C° 0 mm 2 mps 685 mmHg 63%
    20:00 +8°C° 0 mm 2 mps 685 mmHg 64%
    21:00 +7°C° 0 mm 2 mps 685 mmHg 65%
    22:00 +7°C° 0 mm 2 mps 685 mmHg 64%
    23:00 +7°C° 0 mm 2 mps 685 mmHg 64%

    Tomorrow, 12 December, Wednesday

    Time Temperature Precipitation Wind Pressure Humidity
    00:00 +7°C° 0 mm 2 mps 685 mmHg 64%
    01:00 +7°C° 0 mm 2 mps 685 mmHg 66%
    02:00 +7°C° 0 mm 2 mps 685 mmHg 68%
    03:00 +6°C° 0 mm 2 mps 685 mmHg 69%
    04:00 +6°C° 0.1 mm 2 mps 685 mmHg 71%
    05:00 +6°C° 0.1 mm 2 mps 685 mmHg 73%
    06:00 +6°C° 0.1 mm 2 mps 685 mmHg 74%
    07:00 +7°C° 0 mm 2 mps 685 mmHg 71%
    08:00 +7°C° 0 mm 3 mps 685 mmHg 68%
    09:00 +8°C° 0 mm 3 mps 685 mmHg 65%
    10:00 +8°C° 0 mm 4 mps 684 mmHg 59%
    11:00 +11°C° 0 mm 4 mps 683 mmHg 53%
    12:00 +12°C° 0 mm 5 mps 683 mmHg 47%
    13:00 +12°C° 0 mm 5 mps 683 mmHg 45%
    14:00 +12°C° 0 mm 5 mps 682 mmHg 44%
    15:00 +13°C° 0 mm 6 mps 682 mmHg 43%
    16:00 +12°C° 0 mm 5 mps 682 mmHg 46%
    17:00 +11°C° 0 mm 4 mps 682 mmHg 49%
    18:00 +10°C° 0 mm 3 mps 682 mmHg 53%
    19:00 +9°C° 0 mm 3 mps 682 mmHg 54%
    20:00 +9°C° 0 mm 3 mps 682 mmHg 56%
    21:00 +8°C° 0 mm 2 mps 682 mmHg 58%
    22:00 +8°C° 0 mm 2 mps 682 mmHg 59%
    23:00 +8°C° 0 mm 2 mps 682 mmHg 61%

    Day after tomorrow, 13 December, Thursday

    Time Temperature Precipitation Wind Pressure Humidity
    00:00 +8°C° 0 mm 2 mps 682 mmHg 62%
    01:00 +8°C° 0.1 mm 3 mps 682 mmHg 64%
    02:00 +8°C° 0.1 mm 3 mps 682 mmHg 67%
    03:00 +7°C° 0.1 mm 3 mps 682 mmHg 69%
    04:00 +7°C° 0.4 mm 3 mps 682 mmHg 71%
    05:00 +7°C° 0.4 mm 2 mps 682 mmHg 73%
    06:00 +7°C° 0.4 mm 2 mps 682 mmHg 75%
    07:00 +7°C° 0.5 mm 2 mps 682 mmHg 75%
    08:00 +7°C° 0.5 mm 2 mps 683 mmHg 75%
    09:00 +8°C° 0.5 mm 2 mps 683 mmHg 75%
    10:00 +8°C° 0.3 mm 2 mps 683 mmHg 73%
    11:00 +8°C° 0.3 mm 2 mps 683 mmHg 71%
    12:00 +9°C° 0.3 mm 2 mps 683 mmHg 68%
    13:00 +9°C° 0 mm 2 mps 684 mmHg 66%
    14:00 +9°C° 0 mm 2 mps 684 mmHg 63%
    15:00 +10°C° 0 mm 2 mps 685 mmHg 60%
    16:00 +8°C° 0 mm 2 mps 685 mmHg 62%
    17:00 +7°C° 0 mm 2 mps 686 mmHg 64%
    18:00 +6°C° 0 mm 2 mps 687 mmHg 67%
    19:00 +6°C° 0 mm 2 mps 688 mmHg 64%
    20:00 +5°C° 0 mm 2 mps 688 mmHg 62%
    21:00 +5°C° 0 mm 2 mps 689 mmHg 60%
    22:00 +5°C° 0 mm 2 mps 689 mmHg 59%
    23:00 +4°C° 0 mm 2 mps 689 mmHg 59%

    14 December, Friday

    Time Temperature Precipitation Wind Pressure Humidity
    00:00 +4°C° 0 mm 2 mps 690 mmHg 59%
    01:00 +4°C° 0 mm 2 mps 690 mmHg 59%
    02:00 +3°C° 0 mm 2 mps 690 mmHg 60%
    03:00 +3°C° 0 mm 2 mps 690 mmHg 60%
    04:00 +4°C° 0 mm 1 mps 690 mmHg 61%
    05:00 +4°C° 0 mm 1 mps 690 mmHg 61%
    06:00 +3°C° 0 mm 1 mps 691 mmHg 61%
    07:00 +4°C° 0 mm 1 mps 691 mmHg 59%
    08:00 +5°C° 0 mm 1 mps 691 mmHg 56%
    09:00 +6°C° 0 mm 1 mps 691 mmHg 53%
    10:00 +7°C° 0 mm 1 mps 691 mmHg 51%
    11:00 +8°C° 0 mm 1 mps 690 mmHg 49%
    12:00 +9°C° 0 mm 1 mps 690 mmHg 48%
    13:00 +9°C° 0 mm 1 mps 689 mmHg 48%
    14:00 +9°C° 0 mm 1 mps 689 mmHg 48%
    15:00 +9°C° 0 mm 1 mps 689 mmHg 49%
    16:00 +8°C° 0 mm 1 mps 689 mmHg 52%
    17:00 +8°C° 0 mm 1 mps 689 mmHg 54%
    18:00 +7°C° 0 mm 1 mps 689 mmHg 57%
    19:00 +6°C° 0 mm 1 mps 690 mmHg 57%
    20:00 +6°C° 0 mm 1 mps 690 mmHg 57%
    21:00 +6°C° 0 mm 1 mps 690 mmHg 57%
    22:00 +6°C° 0 mm 1 mps 690 mmHg 58%
    23:00 +6°C° 0 mm 1 mps 690 mmHg 58%

    15 December, Saturday

    Time Temperature Precipitation Wind Pressure Humidity
    00:00 +4°C° 0 mm 2 mps 690 mmHg 59%
    01:00 +4°C° 0 mm 2 mps 690 mmHg 59%
    02:00 +4°C° 0 mm 2 mps 690 mmHg 60%
    03:00 +3°C° 0 mm 2 mps 690 mmHg 61%
    04:00 +4°C° 0 mm 1 mps 691 mmHg 62%
    05:00 +4°C° 0 mm 1 mps 691 mmHg 63%
    06:00 +3°C° 0 mm 1 mps 691 mmHg 64%
    07:00 +4°C° 0 mm 1 mps 691 mmHg 61%
    08:00 +5°C° 0 mm 1 mps 692 mmHg 58%
    09:00 +6°C° 0 mm 1 mps 692 mmHg 55%
    10:00 +7°C° 0 mm 1 mps 692 mmHg 52%
    11:00 +8°C° 0 mm 1 mps 692 mmHg 50%
    12:00 +9°C° 0 mm 1 mps 692 mmHg 48%
    13:00 +9°C° 0 mm 1 mps 692 mmHg 48%
    14:00 +9°C° 0 mm 1 mps 692 mmHg 49%
    15:00 +9°C° 0 mm 1 mps 691 mmHg 49%
    16:00 +8°C° 0 mm 1 mps 692 mmHg 52%
    17:00 +7°C° 0 mm 1 mps 692 mmHg 55%
    18:00 +6°C° 0 mm 1 mps 692 mmHg 57%
    19:00 +5°C° 0 mm 1 mps 693 mmHg 58%
    20:00 +5°C° 0 mm 1 mps 693 mmHg 58%
    21:00 +5°C° 0 mm 1 mps 693 mmHg 58%
    22:00 +4°C° 0 mm 1 mps 693 mmHg 58%
    23:00 +4°C° 0 mm 1 mps 693 mmHg 58%

    16 December, Sunday

    Time Temperature Precipitation Wind Pressure Humidity
    00:00 +4°C° 0 mm 1 mps 693 mmHg 58%
    01:00 +4°C° 0 mm 1 mps 693 mmHg 58%
    02:00 +4°C° 0 mm 1 mps 692 mmHg 59%
    03:00 +3°C° 0 mm 1 mps 692 mmHg 59%
    04:00 +3°C° 0 mm 1 mps 692 mmHg 59%
    05:00 +3°C° 0 mm 1 mps 692 mmHg 58%
    06:00 +3°C° 0 mm 1 mps 692 mmHg 58%
    07:00 +4°C° 0 mm 1 mps 693 mmHg 55%
    08:00 +5°C° 0 mm 1 mps 693 mmHg 53%
    09:00 +6°C° 0 mm 1 mps 693 mmHg 50%
    10:00 +7°C° 0 mm 1 mps 693 mmHg 48%
    11:00 +8°C° 0 mm 1 mps 693 mmHg 46%
    12:00 +9°C° 0 mm 1 mps 692 mmHg 45%
    13:00 +9°C° 0 mm 1 mps 692 mmHg 45%
    14:00 +9°C° 0 mm 1 mps 692 mmHg 46%
    15:00 +10°C° 0 mm 1 mps 692 mmHg 46%
    16:00 +9°C° 0 mm 1 mps 692 mmHg 49%
    17:00 +8°C° 0 mm 1 mps 692 mmHg 51%
    18:00 +7°C° 0 mm 1 mps 692 mmHg 54%
    19:00 +7°C° 0 mm 1 mps 692 mmHg 54%
    20:00 +6°C° 0 mm 1 mps 692 mmHg 54%
    21:00 +6°C° 0 mm 1 mps 692 mmHg 54%
    22:00 +6°C° 0 mm 1 mps 692 mmHg 54%
    23:00 +6°C° 0 mm 1 mps 692 mmHg 55%
    Show more